This is the latest recevied weather packets stored in our database for station/object KO4APQ. If no packets are shown the sender has not sent any weather packets the latest 10 day(s).
| Time | Temp. | Humidity | Pressure | Rain* | Wind** | Luminosity | Snow |
|---|---|---|---|---|---|---|---|
| 1777943499 | 18.33° C | 50% | 1015.3 hPa | 0 mm | - | 0 W/m² | - |
| 1777943199 | 18.33° C | 51% | 1015.2 hPa | 0 mm | - | 0 W/m² | - |
| 1777942897 | 18.33° C | 50% | 1015.5 hPa | 0 mm | - | 0 W/m² | - |
| 1777942592 | 18.89° C | 49% | 1015.4 hPa | 0 mm | - | 0 W/m² | - |
| 1777942290 | 18.89° C | 47% | 1015.2 hPa | 0 mm | - | 0 W/m² | - |
| 1777941987 | 19.44° C | 47% | 1015 hPa | 0 mm | - | 0 W/m² | - |
| 1777941683 | 19.44° C | 46% | 1015.1 hPa | 0 mm | - | 0 W/m² | - |
| 1777941381 | 20° C | 45% | 1015 hPa | 0 mm | - | 0 W/m² | - |
| 1777941078 | 20° C | 46% | 1014.9 hPa | 0 mm | - | 1 W/m² | - |
| 1777940774 | 20.56° C | 44% | 1015.1 hPa | 0 mm | - | 2 W/m² | - |
| 1777940472 | 21.11° C | 43% | 1014.9 hPa | 0 mm | - | 3 W/m² | - |
| 1777940169 | 21.11° C | 43% | 1015.1 hPa | 0 mm | - | 6 W/m² | - |
| 1777939867 | 21.11° C | 43% | 1014.9 hPa | 0 mm | - | 10 W/m² | - |
| 1777939563 | 21.67° C | 42% | 1015 hPa | 0 mm | - | 16 W/m² | - |
| 1777939261 | 21.67° C | 42% | 1014.9 hPa | 0 mm | - | 24 W/m² | - |
| 1777938958 | 21.67° C | 41% | 1015 hPa | 0 mm | - | 28 W/m² | - |
| 1777938654 | 22.22° C | 40% | 1014.9 hPa | 0 mm | - | 31 W/m² | - |
| 1777938351 | 22.22° C | 41% | 1014.9 hPa | 0 mm | - | 36 W/m² | - |
| 1777938049 | 22.78° C | 40% | 1014.8 hPa | 0 mm | - | 45 W/m² | - |
| 1777937744 | 22.78° C | 39% | 1014.7 hPa | 0 mm | - | 53 W/m² | - |
| 1777937441 | 22.78° C | 40% | 1014.8 hPa | 0 mm | - | 64 W/m² | - |
| 1777937138 | 23.33° C | 38% | 1014.8 hPa | 0 mm | - | 69 W/m² | - |
| 1777936836 | 23.33° C | 39% | 1014.7 hPa | 0 mm | - | 73 W/m² | - |
| 1777936532 | 23.33° C | 37% | 1014.7 hPa | 0 mm | - | 90 W/m² | - |
| 1777936228 | 23.33° C | 37% | 1014.7 hPa | 0 mm | - | 95 W/m² | - |
* Rain latest hour (hover to see other rain measurements)
** Current wind speed in m/s (hover to see current wind gust speed)